Location: Cagnac
(44.9397°N, 1.8772°E)
Time: 03:53:46
(UTC+00:00)

Daily predictions for brighter satellites

Satellite Brightness Start Highest point End
(mag) Time Altitude Azimuth Time Altitude Azimuth Time Altitude Azimuth
Cosmos 2322 Rocket 2.3 00:05:15 54° WSW 00:06:25 69° WNW 00:12:02 10° NNE
Okean 1-7 3.7 00:06:47 46° WNW 00:06:47 46° WNW 00:10:58 10° N
Cosmos 923 Rocket 4.0 00:04:40 10° NNW 00:09:58 64° WSW 00:10:11 63° WSW
Cosmos 1818 4.3 00:04:53 10° NNW 00:10:14 51° NE 00:12:49 28° ESE
ALOS 2 4.1 00:11:03 26° W 00:11:03 26° W 00:14:17 10° NW
USA 267 3.7 00:10:32 41° SW 00:10:33 41° SW 00:16:41 10° WNW
Cosmos 1242 Rocket 4.2 00:08:11 10° NNE 00:11:04 27° ENE 00:11:04 27° ENE
ATLAS CENTAUR R/B 3.2 00:08:52 10° NNW 00:13:20 34° NE 00:16:20 17° E
Cosmos 1782 Rocket 4.0 00:14:30 10° NNW 00:18:18 51° WNW 00:18:18 51° WNW
Cosmos 372 Rocket 4.0 00:19:41 62° SE 00:19:58 64° ESE 00:25:04 10° NNE
ERS-2 4.3 00:18:08 10° NNW 00:20:41 18° WNW 00:20:41 18° WNW
ADEOS Rocket 3.2 00:20:35 44° WSW 00:21:05 45° W 00:26:33 10° NNW
Okean 2 Rocket 3.8 00:16:46 10° N 00:21:06 45° ENE 00:21:37 43° E
Cosmos 1953 4.4 00:23:15 10° NNE 00:26:17 20° ENE 00:27:20 18° E
Cosmos 1844 Rocket 2.6 00:21:14 10° NNW 00:26:48 67° WSW 00:27:18 63° SW
Cosmos 1844 3.6 00:22:08 10° NNW 00:27:58 78° WSW 00:28:57 61° S
Meteor 1-21 4.3 00:26:51 56° SSE 00:27:59 72° E 00:33:49 10° NNE
Cosmos 1937 Rocket 3.4 00:29:41 65° SW 00:30:22 76° WNW 00:35:40 10° NNE
Cosmos 2112 Rocket 4.0 00:25:30 10° NNW 00:30:48 65° WSW 00:31:08 64° SW
Cosmos 1758 3.6 00:29:47 10° N 00:33:27 61° NE 00:33:27 61° NE
Cosmos 1680 Rocket 3.7 00:29:01 10° NNW 00:34:10 52° WSW 00:34:17 52° WSW
Cosmos 1674 3.4 00:36:19 49° NE 00:36:19 49° NE 00:39:23 10° NNE
Sich 1 Rocket 3.5 00:31:23 10° N 00:35:48 81° E 00:35:49 81° E
Resurs 1-4 Rocket 3.6 00:33:28 10° NE 00:37:48 25° E 00:39:19 22° ESE
Cosmos 1470 3.6 00:34:16 10° NNW 00:37:14 42° NW 00:37:14 42° NW
Okean 2 3.5 00:39:06 69° ENE 00:39:06 69° ENE 00:42:54 10° NNE
SL-08 ROCKET BODY 4.3 00:33:57 10° NNW 00:39:49 68° W 00:40:56 55° SSW
Cosmos 2219 Rocket 2.2 00:39:12 55° SSE 00:40:04 63° ESE 00:45:36 10° NNE
CZ-4C R/B 3.7 00:33:19 10° NNW 00:40:14 52° NE 00:48:22 10° ESE
Cosmos 1707 3.1 00:40:54 59° NNW 00:40:54 59° NNW 00:44:16 10° N
SL-16 R/B 3.6 00:38:30 20° W 00:41:15 30° NW 00:46:13 10° N
COSMOS 2428 3.1 00:44:03 44° SE 00:45:06 49° ESE 00:50:34 10° NE
NOSS 3-1 (C) 4.2 00:37:45 10° NW 00:45:11 74° NE 00:53:58 10° SE
Cosmos 1437 Rocket 4.2 00:42:40 10° N 00:46:01 29° ENE 00:46:36 27° E
Cosmos 1726 4.4 00:44:00 10° NW 00:45:19 15° WNW 00:45:19 15° WNW
Cosmos 1300 Rocket 4.0 00:42:20 10° NNW 00:46:12 49° WNW 00:46:12 49° WNW
ATLAS 3B R/B 3.3 00:40:52 10° NW 00:47:42 41° WSW 00:48:51 39° SW
ASTEX 1 3.6 00:43:45 10° N 00:48:31 54° W 00:49:02 51° WSW
Cosmos 1898 Rocket 4.5 00:48:35 33° W 00:50:03 39° WNW 00:55:04 10° N
MOZ.5/SAFIR/RUBIN 5/SL-8 3.9 00:53:59 52° SE 00:54:58 69° ENE 00:59:41 10° N
Cosmos 1626 2.4 00:55:39 65° NNE 00:55:39 65° NNE 00:58:50 10° N
S3M 4.2 00:54:26 41° SSE 00:56:42 67° E 01:03:02 10° NNE
Cosmos 2237 Rocket 3.8 00:57:20 20° SE 00:59:14 24° ESE 01:03:41 10° NE
Cosmos 2333 4.4 01:01:59 46° WSW 01:03:31 63° WNW 01:09:07 10° NNE
KORONAS-FOTON 4.2 01:03:59 55° NW 01:03:59 55° NW 01:07:20 10° N
Cosmos 1553 Rocket 4.0 01:02:58 47° SW 01:04:41 70° W 01:10:50 10° N
ADEOS II 3.8 01:02:04 10° NE 01:06:15 24° E 01:08:46 17° SE
Cosmos 405 Rocket 2.7 01:10:48 73° ENE 01:10:48 73° ENE 01:14:20 10° NNE
Cosmos 1300 4.0 01:07:22 10° N 01:10:51 34° ENE 01:11:51 29° ESE
Cosmos 2221 Rocket 3.7 01:10:52 55° W 01:11:10 57° WNW 01:15:32 10° N
Cosmos 1386 Rocket 4.3 01:05:56 10° N 01:11:59 85° W 01:14:06 43° S
Okean 1 Rocket 3.1 01:11:29 10° N 01:15:54 74° E 01:16:47 55° SSE
Cosmos 2360 Rocket 3.4 01:13:37 23° W 01:16:04 33° NW 01:21:09 10° N
IDEFIX/ARIANE 42P 4.3 01:13:40 10° NE 01:17:58 25° E 01:20:54 16° SE
ATLAS 5 CENTAUR R/B 2.7 01:07:11 10° NW 01:18:26 75° SW 01:19:49 44° SSE
Cosmos 1238 Rocket 3.9 01:15:38 10° NNW 01:17:10 25° NW 01:17:10 25° NW
Cosmos 1461 3.6 01:16:21 10° NNW 01:20:26 54° NE 01:23:29 18° SE
Cosmos 1908 3.6 01:17:17 10° NNW 01:20:34 49° WNW 01:20:34 49° WNW
Meteor 2-10 Rocket 4.5 01:17:40 10° N 01:23:17 49° ENE 01:27:14 18° SE
Cosmos 2278 Rocket 2.7 01:22:45 10° NNW 01:28:23 58° ENE 01:33:56 10° SE
CZ-2D R/B 2.3 01:23:09 10° NNE 01:28:34 67° ESE 01:30:34 38° S
Cosmos 1867 3.5 01:30:59 45° SSW 01:32:41 80° ESE 01:38:12 10° NE
SME Rocket 2.8 01:32:57 63° SW 01:33:16 67° WSW 01:37:33 10° NNW
Gblst 52 Del rocket 4.5 01:30:00 23° W 01:33:41 66° NNW 01:39:12 10° ENE
Cosmos 1048 Rocket 3.8 01:29:18 10° NNW 01:34:30 80° WSW 01:36:29 38° S
Cosmos 2333 Rocket 3.1 01:33:18 27° WSW 01:35:41 40° NW 01:41:01 10° NNE
Cosmos 1125 Rocket 3.5 01:37:42 42° S 01:39:27 76° ESE 01:44:40 10° NNE
Cosmos 1745 Rocket 4.2 01:35:16 10° NNW 01:41:20 54° W 01:43:37 36° SSW
SL-16 R/B 2.5 01:37:47 22° SSE 01:42:02 84° ENE 01:48:18 10° NNW
YAOGAN 11 4.5 01:39:55 27° SE 01:42:12 64° ENE 01:46:37 10° N
SL-16 R/B 4.3 01:38:40 10° SE 01:42:18 18° E 01:45:56 10° ENE
Cosmos 2322 4.3 01:40:26 30° WSW 01:42:49 47° WNW 01:48:21 10° NNE
Cosmos 1674 Rocket 4.3 01:43:30 35° W 01:44:09 37° WNW 01:48:13 10° N
Thor Agena Rocket 4.1 01:39:11 10° N 01:44:12 47° WNW 01:46:03 33° WSW
Cosmos 1943 Rocket 4.4 01:40:17 10° N 01:44:58 26° NE 01:49:39 10° ESE
Cosmos 2298 Rocket 4.0 01:45:28 40° SSW 01:47:26 90° ENE 01:52:46 10° NNE
EO 1 Del DPAF 4.3 01:44:22 10° NNE 01:47:36 34° E 01:48:38 28° SE
USA 290 2.9 01:48:51 41° WNW 01:48:51 41° WNW 01:51:54 10° N
Cosmos 1980 3.9 01:46:55 33° S 01:49:25 64° ESE 01:55:01 10° NNE
Cosmos 2322 Rocket 4.5 01:48:36 10° WNW 01:51:34 14° NW 01:54:33 10° N
ATLAS CENTAUR R/B 2.2 01:47:42 10° NW 01:52:12 39° WSW 01:52:17 39° WSW
SL-14 R/B 3.7 01:56:23 41° WSW 01:56:58 44° WNW 02:00:43 10° N
Cosmos 494 Rocket 4.0 01:52:14 10° NNW 01:57:14 55° WSW 01:59:07 35° SSW
AQUA 3.8 01:52:41 10° NNE 01:57:28 79° ESE 01:59:34 34° S
USA 229 DEB 3.9 01:50:42 10° NW 01:58:08 89° ENE 02:06:02 10° SE
USA 229 3.9 01:50:48 10° NW 01:58:13 89° NE 02:06:06 10° SE
OE (NEXTSAT) 4.2 01:57:23 43° WNW 01:58:22 81° N 02:01:42 10° E
Cosmos 1455 Rocket 3.2 01:55:58 10° N 02:00:28 77° E 02:03:00 25° SSE
Cosmos 1953 3.1 01:59:04 10° NNW 02:02:41 33° W 02:02:56 32° W
GP-B 3.8 01:59:32 10° NNW 02:03:41 40° W 02:04:47 34° WSW
NOSS 2-2 (C) 4.4 02:00:14 10° NW 02:05:23 88° NE 02:12:45 10° SE
Helios 1A 3.2 02:02:52 20° SSE 02:05:44 70° ENE 02:09:56 10° N
Cosmos 371 Rocket 3.3 02:04:37 35° SW 02:06:36 70° WNW 02:11:28 10° NNE
MSX 4.4 02:01:50 10° NNE 02:07:29 53° E 02:11:46 17° S
UNK 3.7 02:07:23 31° S 02:09:27 65° W 02:14:02 10° NNW
NPP 3.7 02:05:01 10° N 02:10:22 65° WNW 02:13:05 29° SW
Meteor 1-28 Rocket 3.1 02:10:52 28° SSE 02:12:44 88° ENE 02:16:30 10° NNW
Cosmos 1975 Rocket 3.0 02:11:29 34° SSW 02:13:21 78° W 02:17:48 10° N
CZ-4 R/B 4.3 02:09:33 10° N 02:14:00 44° WNW 02:15:53 29° WSW
USA 306 3.6 02:13:37 30° S 02:14:56 39° SE 02:18:51 10° ENE
USA 307 3.8 02:13:44 27° S 02:15:04 34° SE 02:18:53 10° ENE
Resurs 1-4 Rocket 2.6 02:12:47 10° N 02:17:47 45° WNW 02:20:23 26° SW
NOSS 2-2 (E) 4.4 02:13:08 10° NW 02:18:29 66° SW 02:26:01 10° SSE
Cosmos 2315 Rocket 4.4 02:18:05 26° SW 02:21:33 51° WNW 02:27:45 10° N
Cosmos 1437 Rocket 4.3 02:19:16 10° NW 02:21:54 19° W 02:21:54 19° W
SAR-Lupe-2 4.1 02:20:35 10° N 02:24:02 45° WNW 02:25:09 33° WSW
Cosmos 2219 Rocket 3.8 02:20:54 13° W 02:24:29 24° NW 02:28:57 10° N
NOSS 3-1 (A) 4.2 02:17:16 10° NW 02:24:44 58° WSW 02:33:23 10° SSE
Helios 1B rocket 4.2 02:22:04 10° NE 02:25:32 27° E 02:29:00 10° SSE
Cosmos 2074 Rocket 4.1 02:19:25 10° N 02:25:45 80° E 02:32:02 10° S
NOSS 0 Rocket 4.2 02:22:49 24° SW 02:26:36 59° WNW 02:32:47 10° NNE
FALCON 9 R/B 4.5 02:00:47 10° W 02:27:41 44° SSW 02:35:23 10° SE
MOS 1 Rocket 3.3 02:26:10 27° SSW 02:28:12 50° W 02:32:22 10° NNW
CZ-4C R/B 3.3 02:21:52 10° NW 02:29:01 49° WSW 02:37:10 10° S
COSMOS 2428 4.0 02:26:02 16° WSW 02:29:35 29° NW 02:34:32 10° N
SeaSat 1 4.4 02:27:27 10° ENE 02:31:12 21° ESE 02:34:56 10° SSE
Cosmos 304 Rocket 3.9 02:30:28 26° SW 02:33:07 63° WNW 02:37:56 10° NNE
Cosmos 2184 Rocket 4.0 02:27:17 10° N 02:33:38 87° E 02:39:51 10° S
Cosmos 1269 Rocket 4.1 02:32:27 10° NNW 02:37:46 82° ENE 02:43:02 10° SSE
Cosmos 1455 2.1 02:38:30 10° N 02:42:13 80° E 02:45:55 10° S
Cosmos 2237 Rocket 2.5 02:39:10 21° SW 02:42:52 55° WNW 02:48:29 10° NNE
Cosmos 1025 Rocket 3.5 02:41:57 23° SW 02:44:17 45° WNW 02:48:27 10° N
USA 308 3.1 02:42:41 24° SSW 02:45:03 59° SE 02:49:12 10° ENE
BREEZE-M DEB (TANK) 4.2 02:33:28 10° W 02:45:11 63° NNW 02:48:44 10° ENE
Cosmos 2084 Rocket 4.1 02:43:24 18° S 02:45:52 39° ESE 02:49:27 10° NE
Cosmos 1544 Rocket 3.5 02:41:28 10° NNW 02:45:54 68° W 02:49:52 12° S
Cosmos 1300 4.4 02:43:39 10° NW 02:46:07 17° W 02:46:41 16° W
ADEOS II 2.5 02:41:07 10° N 02:46:10 48° WNW 02:49:41 19° SW
Lacrosse 5 3.0 02:48:06 14° S 02:51:58 35° SE 02:56:35 10° ENE
Cosmos 2297 4.3 02:48:24 10° NNW 02:54:07 61° ENE 02:59:47 10° SE
IDEFIX/ARIANE 42P 3.1 02:52:43 10° N 02:57:45 46° WNW 03:01:42 16° SW
Cosmos 1461 4.4 02:56:13 10° WNW 02:59:03 18° WSW 02:59:38 17° WSW
CZ-2D R/B 3.8 03:04:16 10° NNW 03:08:03 20° WNW 03:11:48 10° WSW
Cosmos 2278 Rocket 3.4 03:07:41 10° NW 03:12:00 23° W 03:16:04 11° SSW
USA 305 2.9 03:09:06 15° WSW 03:12:33 76° NNW 03:16:45 10° NE
ERBS 2.0 03:14:11 16° SW 03:16:30 90° SE 03:19:35 10° NE
Meteor 1-24 Rocket 4.5 03:13:15 13° SW 03:17:53 37° WNW 03:23:02 10° N
Nadezhda 1 Rocket 4.2 03:15:44 10° SSW 03:22:03 62° WNW 03:28:21 10° N
FENGYUN 3A 3.8 03:20:01 10° NNE 03:25:25 81° ESE 03:30:48 10° SSW
SL-16 R/B 2.3 03:20:09 10° SSW 03:25:45 72° WNW 03:31:27 10° NNE
Cosmos 2341 Rocket 4.3 03:19:50 10° N 03:26:15 77° E 03:32:37 10° SSE
SL-16 R/B 4.0 03:22:52 11° SW 03:26:22 16° W 03:30:09 10° NW
Cosmos 1943 Rocket 2.3 03:23:33 10° NNW 03:29:08 59° WSW 03:34:40 10° S
COSMOS 2455 3.3 03:24:25 10° SSW 03:30:21 63° ESE 03:36:19 10° NE
Cosmos 2369 Rocket 2.9 03:25:46 10° NNW 03:31:18 59° ENE 03:36:49 10° SE
Cosmos 2154 Rocket 4.5 03:32:39 10° NNW 03:38:34 42° W 03:44:26 10° SSW
ARIANE 5 R/B 2.7 03:34:24 10° NNE 03:39:32 76° ESE 03:44:34 10° S
CBERS-1 4.4 03:34:50 10° N 03:39:44 48° WNW 03:44:37 10° SW
IRS-1C 4.2 03:37:53 10° NNE 03:43:16 85° WNW 03:48:36 10° SSW
Cosmos 2366 rocket 4.3 03:37:45 10° N 03:43:55 72° E 03:50:04 10° SSE
Cosmos 1328 3.9 03:40:02 10° S 03:43:56 79° E 03:47:55 10° N
Lacrosse 5 rocket 2.1 03:40:39 10° SSW 03:44:21 44° SE 03:48:18 10° ENE
CZ-2C R/B 4.3 03:40:14 10° SE 03:44:57 38° ENE 03:49:45 10° N
SL-08 R/B 3.7 03:40:50 10° SSE 03:45:24 70° ENE 03:50:01 10° N
Cosmos 2251 Rocket 3.6 03:41:41 10° NNW 03:46:58 88° ENE 03:52:15 10° SSE
